CYGNUS NG-15 (47689 NORAD) Tracking and Keplerian Element Data

This shows tracking and keplerian element data for the satellite.

Feedback or suggestion? Click here.




ElementValue
Catalog47689
NameCYGNUS NG-15
Epoch Orbit27827
Epoch Day101.58258458
Epoch Year2021
RAAN312.1625
Inclination51.6436
Eccentricity0.0002799
Argument of Perigee220.0748
Mean Anonmoly219.4362
Mean Motion15.48880584
Decay Rate3.86E-06
L11 47689U 21013A 21101.58258458 .00000386 00000-0 15214-4 0 9995
L22 47689 51.6436 312.1625 0002799 220.0748 219.4362 15.48880584278275

Live tracking and technical data element details for CYGNUS NG-15 (NORAD 47689). CYGNUS NG-15 can be tracked NOW for your location showing map with azimuth and elevation plus other details from your city location.

Track the satellite on the map from your city or location and see movement details for azimuth, elevation, latitude, longitude, range, height, and movement on the map or in text.







IsCatalogInMostPopularTable: catalog: 47689, numindb: 18
Update: records affected: 1



GetName: 47689 CYGNUS NG-15

Hit Count: updated at: Tue, 13 Apr 2021 04:30:33 GMT